DW4466 Weather Reports


Display with metric or nautical units.
time (UTC)temp
F
wind
direction
speed
MPH
gust
MPH
rain 1hr
in
rain 24hr
in
rain mn
in
humidity
%
barometer
mb
20260506040031 70 254 3.0 11.0 0.00 0.00 0.00 51 1008.1
20260506035559 70 293 3.0 11.0 0.00 0.00 0.00 50 1007.9
20260506035018 71 294 5.0 16.0 0.00 0.00 0.00 50 1007.8
20260506034554 71 298 5.0 16.0 0.00 0.00 0.00 48 1007.8
20260506034023 71 307 4.0 15.0 0.00 0.00 0.00 48 1007.7
20260506033558 71 258 7.0 15.0 0.00 0.00 0.00 48 1007.9
20260506033036 71 213 6.0 12.0 0.00 0.00 0.00 47 1007.8
20260506032551 71 271 4.0 9.0 0.00 0.00 0.00 47 1007.7
20260506032028 71 315 4.0 9.0 0.00 0.00 0.00 47 1007.6
20260506031603 71 327 4.0 9.0 0.00 0.00 0.00 47 1007.7
20260506031506 71 330 4.0 9.0 0.00 0.00 0.00 46 1007.7
20260506031036 71 250 3.0 10.0 0.00 0.00 0.00 46 1007.7
20260506030511 71 262 3.0 11.0 0.00 0.00 0.00 45 1007.7
20260506030041 71 235 5.0 11.0 0.00 0.00 0.00 45 1007.8
20260506025555 71 317 4.0 12.0 0.00 0.00 0.00 45 1007.7
20260506025027 71 279 6.0 12.0 0.00 0.00 0.00 45 1007.8
20260506024559 72 283 3.0 15.0 0.00 0.00 0.00 45 1007.9
20260506024035 72 248 5.0 15.0 0.00 0.00 0.00 45 1007.8
20260506023511 72 267 6.0 13.0 0.00 0.00 0.00 45 1007.8
20260506023023 71 281 4.0 11.0 0.00 0.00 0.00 45 1007.7
20260506022555 71 314 3.0 11.0 0.00 0.00 0.00 45 1007.8
20260506022023 71 298 6.0 11.0 0.00 0.00 0.00 45 1007.7
20260506021601 72 319 5.0 11.0 0.00 0.00 0.00 45 1007.7
20260506021501 72 313 4.0 11.0 0.00 0.00 0.00 44 1007.7
20260506021034 72 249 3.0 17.0 0.00 0.00 0.00 44 1007.7
20260506020510 72 290 6.0 14.0 0.00 0.00 0.00 43 1007.7
20260506020026 72 335 3.0 12.0 0.00 0.00 0.00 44 1007.8
20260506015506 72 294 3.0 11.0 0.00 0.00 0.00 44 1007.8
20260506015042 72 292 4.0 10.0 0.00 0.00 0.00 43 1007.8
20260506014508 72 308 3.0 9.0 0.00 0.00 0.00 43 1007.7
20260506014041 72 340 3.0 10.0 0.00 0.00 0.00 43 1007.7
20260506013515 72 296 4.0 10.0 0.00 0.00 0.00 42 1007.6
20260506013048 72 349 4.0 9.0 0.00 0.00 0.00 42 1007.6
20260506012519 72 319 3.0 10.0 0.00 0.00 0.00 41 1007.5
20260506012059 73 279 3.0 10.0 0.00 0.00 0.00 41 1007.5
20260506011534 73 277 1.0 9.0 0.00 0.00 0.00 40 1007.5
20260506011059 73 295 3.0 11.0 0.00 0.00 0.00 39 1007.4
20260506011006 73 269 2.0 11.0 0.00 0.00 0.00 40 1007.5
20260506010535 73 231 4.0 11.0 0.00 0.00 0.00 39 1007.4
20260506010101 73 275 2.0 11.0 0.00 0.00 0.00 39 1007.3
20260506005520 74 288 5.0 11.0 0.00 0.00 0.00 38 1007.2
20260506005053 74 229 4.0 10.0 0.00 0.00 0.00 38 1007.1
20260506004545 74 275 5.0 10.0 0.00 0.00 0.00 37 1007.1
20260506004057 74 290 4.0 10.0 0.00 0.00 0.00 36 1006.9
20260506003533 74 285 5.0 10.0 0.00 0.00 0.00 36 1007.0
20260506003047 75 302 4.0 10.0 0.00 0.00 0.00 36 1006.9
20260506002516 75 324 3.0 10.0 0.00 0.00 0.00 35 1006.8
20260506002051 75 348 4.0 12.0 0.00 0.00 0.00 35 1006.8
20260506001523 75 349 6.0 12.0 0.00 0.00 0.00 36 1006.8
20260506001057 75 172 6.0 12.0 0.00 0.00 0.00 36 1006.7
20260506000531 76 315 7.0 14.0 0.00 0.00 0.00 34 1006.6
20260506000006 76 276 6.0 14.0 0.00 0.00 0.00 34 1006.6
20260505235541 76 300 6.0 16.0 0.00 0.00 0.00 34 1006.5
20260505235013 77 299 10.0 15.0 0.00 0.00 0.00 32 1006.6
20260505234545 77 311 5.0 18.0 0.00 0.00 0.00 33 1006.5
20260505234014 77 314 6.0 17.0 0.00 0.00 0.00 32 1006.3
20260505233548 77 264 8.0 23.0 0.00 0.00 0.00 31 1006.4
20260505233023 77 319 9.0 18.0 0.00 0.00 0.00 31 1006.5
20260505232550 78 306 9.0 18.0 0.00 0.00 0.00 32 1006.4
20260505232021 78 306 4.0 21.0 0.00 0.00 0.00 32 1006.3
20260505231555 78 267 7.0 20.0 0.00 0.00 0.00 32 1006.4
20260505231028 79 311 6.0 16.0 0.00 0.00 0.00 32 1006.5
20260505230542 79 286 9.0 16.0 0.00 0.00 0.00 32 1006.3
20260505230015 79 310 6.0 15.0 0.00 0.00 0.00 33 1006.5
20260505225546 79 281 6.0 15.0 0.00 0.00 0.00 33 1006.5
20260505225024 79 277 5.0 12.0 0.00 0.00 0.00 33 1006.6
20260505224551 79 306 5.0 17.0 0.00 0.00 0.00 33 1006.6
20260505224026 79 315 6.0 17.0 0.00 0.00 0.00 34 1006.4
20260505223541 79 258 5.0 26.0 0.00 0.00 0.00 33 1006.4
20260505223014 80 311 12.0 26.0 0.00 0.00 0.00 32 1006.4
20260505222550 80 327 8.0 24.0 0.00 0.00 0.00 33 1006.5
20260505222024 80 284 10.0 26.0 0.00 0.00 0.00 33 1006.5
20260505221603 80 311 8.0 26.0 0.00 0.00 0.00 34 1006.7
20260505221016 79 284 3.0 19.0 0.00 0.00 0.00 33 1006.6
20260505220551 79 311 7.0 19.0 0.00 0.00 0.00 33 1006.6
20260505220022 79 261 7.0 18.0 0.00 0.00 0.00 33 1006.6
20260505215554 79 271 6.0 19.0 0.00 0.00 0.00 33 1006.5
20260505215030 79 324 8.0 21.0 0.00 0.00 0.00 33 1006.4
20260505214549 80 350 9.0 25.0 0.00 0.00 0.00 32 1006.2
20260505214020 80 278 5.0 16.0 0.00 0.00 0.00 32 1006.3
20260505213554 80 265 7.0 20.0 0.00 0.00 0.00 32 1006.3
20260505213040 80 295 8.0 19.0 0.00 0.00 0.00 33 1006.2
20260505212509 81 299 8.0 20.0 0.00 0.00 0.00 33 1006.2
20260505212041 80 268 10.0 17.0 0.00 0.00 0.00 33 1006.3
20260505211512 80 262 8.0 20.0 0.00 0.00 0.00 33 1006.3
20260505211029 80 283 9.0 24.0 0.00 0.00 0.00 35 1006.3
20260505210559 80 291 10.0 24.0 0.00 0.00 0.00 32 1006.3
20260505210502 80 296 8.0 20.0 0.00 0.00 0.00 32 1006.3
20260505210038 80 279 10.0 20.0 0.00 0.00 0.00 32 1006.3
20260505205508 80 280 11.0 24.0 0.00 0.00 0.00 32 1006.3
20260505205042 80 308 5.0 24.0 0.00 0.00 0.00 34 1006.3
20260505204515 80 304 7.0 21.0 0.00 0.00 0.00 34 1006.3
20260505204034 80 254 10.0 20.0 0.00 0.00 0.00 32 1006.3
20260505203506 80 250 8.0 25.0 0.00 0.00 0.00 33 1006.4
20260505203048 80 301 7.0 25.0 0.00 0.00 0.00 34 1006.4
20260505202509 80 347 7.0 21.0 0.00 0.00 0.00 35 1006.5
20260505202044 81 243 10.0 21.0 0.00 0.00 0.00 34 1006.3
20260505201515 81 304 8.0 22.0 0.00 0.00 0.00 34 1006.5
20260505201050 81 311 10.0 20.0 0.00 0.00 0.00 34 1006.3
20260505200508 81 333 5.0 20.0 0.00 0.00 0.00 36 1006.4
20260505200042 81 259 7.0 20.0 0.00 0.00 0.00 33 1006.6
20260505195519 81 271 9.0 24.0 0.00 0.00 0.00 34 1006.6
20260505195046 82 308 10.0 20.0 0.00 0.00 0.00 36 1006.6
20260505194523 82 311 7.0 17.0 0.00 0.00 0.00 36 1006.6
20260505194052 82 282 7.0 17.0 0.00 0.00 0.00 37 1006.7
20260505193511 81 306 8.0 18.0 0.00 0.00 0.00 36 1006.7
20260505193102 82 360 11.0 21.0 0.00 0.00 0.00 37 1006.7
20260505192513 82 286 10.0 22.0 0.00 0.00 0.00 39 1006.7
20260505192048 82 304 12.0 21.0 0.00 0.00 0.00 37 1006.9
20260505191532 82 208 6.0 20.0 0.00 0.00 0.00 41 1006.7
20260505191056 81 149 5.0 25.0 0.00 0.00 0.00 38 1006.7
20260505190529 82 283 11.0 23.0 0.00 0.00 0.00 37 1006.9
20260505190005 82 305 6.0 21.0 0.00 0.00 0.00 40 1007.0
20260505185538 82 288 5.0 13.0 0.00 0.00 0.00 40 1007.0
20260505185012 81 321 6.0 16.0 0.00 0.00 0.00 40 1007.1
20260505184551 81 238 7.0 19.0 0.00 0.00 0.00 40 1007.1
20260505184016 81 283 8.0 19.0 0.00 0.00 0.00 40 1007.2
20260505183533 81 17 6.0 16.0 0.00 0.00 0.00 40 1007.1
20260505183006 81 236 8.0 16.0 0.00 0.00 0.00 40 1007.2
20260505182539 81 261 9.0 17.0 0.00 0.00 0.00 40 1007.3
20260505182012 81 318 10.0 20.0 0.00 0.00 0.00 39 1007.5
20260505181546 81 283 7.0 17.0 0.00 0.00 0.00 41 1007.5
20260505181023 80 256 6.0 15.0 0.00 0.00 0.00 41 1007.5
20260505180539 80 267 8.0 17.0 0.00 0.00 0.00 42 1007.8
20260505180008 80 221 2.0 17.0 0.00 0.00 0.00 41 1007.8
20260505175537 80 302 7.0 19.0 0.00 0.00 0.00 42 1008.0
20260505175010 80 295 8.0 19.0 0.00 0.00 0.00 41 1008.0
20260505174544 80 254 9.0 19.0 0.00 0.00 0.00 41 1008.0
20260505174026 80 294 7.0 19.0 0.00 0.00 0.00 44 1008.1
20260505173542 80 244 8.0 15.0 0.00 0.00 0.00 45 1008.3
20260505173016 79 356 5.0 18.0 0.00 0.00 0.00 44 1008.3
20260505172547 79 226 10.0 18.0 0.00 0.00 0.00 43 1008.3
20260505172017 79 283 3.0 19.0 0.00 0.00 0.00 42 1008.4
20260505171551 79 260 8.0 19.0 0.00 0.00 0.00 42 1008.5
20260505171008 79 315 3.0 13.0 0.00 0.00 0.00 42 1008.3
20260505170539 79 283 6.0 16.0 0.00 0.00 0.00 40 1008.5
20260505170019 79 75 7.0 18.0 0.00 0.00 0.00 42 1008.7
20260505165553 79 248 5.0 17.0 0.00 0.00 0.00 40 1008.7
20260505165012 79 7 5.0 14.0 0.00 0.00 0.00 43 1008.6
20260505164546 78 315 6.0 14.0 0.00 0.00 0.00 41 1009.0
20260505164018 78 288 4.0 17.0 0.00 0.00 0.00 42 1009.1
20260505163555 78 283 8.0 17.0 0.00 0.00 0.00 42 1009.0
20260505163036 78 201 6.0 13.0 0.00 0.00 0.00 44 1009.0
20260505162600 78 282 6.0 13.0 0.00 0.00 0.00 43 1009.1
20260505162015 78 297 6.0 15.0 0.00 0.00 0.00 45 1009.2
20260505161548 78 300 7.0 16.0 0.00 0.00 0.00 43 1009.3
20260505161022 78 177 6.0 15.0 0.00 0.00 0.00 42 1009.3
20260505160553 78 292 3.0 12.0 0.00 0.00 0.00 45 1009.3
20260505153037 76 316 6.0 17.0 0.00 0.00 0.00 45 1009.8
20260505152504 76 276 6.0 12.0 0.00 0.00 0.00 45 1009.8
20260505152037 76 34 4.0 16.0 0.00 0.00 0.00 45 1009.8
20260505151508 76 54 5.0 16.0 0.00 0.00 0.00 45 1009.7
20260505151044 76 340 6.0 12.0 0.00 0.00 0.00 46 1009.7
20260505150515 76 233 4.0 12.0 0.00 0.00 0.00 45 1009.6
20260505140533 72 330 3.0 10.0 0.00 0.00 0.00 55 1009.8
20260505140106 72 292 2.0 8.0 0.00 0.00 0.00 54 1009.7
20260505124529 64 302 1.0 8.0 0.00 0.00 0.00 65 1010.5
20260505124004 64 298 3.0 7.0 0.00 0.00 0.00 65 1010.4
20260505123536 63 287 0.0 5.0 0.00 0.00 0.00 66 1010.4
20260505123008 63 346 2.0 6.0 0.00 0.00 0.00 66 1010.4
20260505122545 62 313 3.0 10.0 0.00 0.00 0.00 66 1010.5
20260505122025 62 268 4.0 10.0 0.00 0.00 0.00 66 1010.6
20260505121537 62 346 4.0 7.0 0.00 0.00 0.00 67 1010.5
20260505121011 61 16 2.0 7.0 0.00 0.00 0.00 68 1010.5
20260505120543 61 308 3.0 7.0 0.00 0.00 0.00 69 1010.6
20260505120027 60 8 3.0 6.0 0.00 0.00 0.00 70 1010.5
20260505115546 60 6 0.0 6.0 0.00 0.00 0.00 72 1010.5
20260505115023 59 298 0.0 7.0 0.00 0.00 0.00 73 1010.4
20260505114553 59 323 1.0 7.0 0.00 0.00 0.00 73 1010.4
20260505114025 58 262 1.0 7.0 0.00 0.00 0.00 73 1010.3
20260505113508 58 24 0.0 5.0 0.00 0.00 0.00 74 1010.2
20260505113049 58 14 1.0 5.0 0.00 0.00 0.00 74 1010.1
20260505112512 58 46 1.0 5.0 0.00 0.00 0.00 76 1010.1
20260505112046 58 25 0.0 5.0 0.00 0.00 0.00 75 1010.1
20260505111530 57 1 1.0 5.0 0.00 0.00 0.00 75 1010.0
20260505111051 57 350 0.0 3.0 0.00 0.00 0.00 76 1009.9
20260505110526 57 21 0.0 2.0 0.00 0.00 0.00 76 1009.9
20260505110117 57 301 0.0 2.0 0.00 0.00 0.00 76 1009.9
20260505102006 56 321 1.0 5.0 0.00 0.00 0.00 78 1009.3
20260505101530 56 280 1.0 5.0 0.00 0.00 0.00 78 1009.3
20260505101042 56 343 0.0 3.0 0.00 0.00 0.00 77 1009.2
20260505100516 56 319 0.0 3.0 0.00 0.00 0.00 77 1009.1
20260505100048 56 329 0.0 2.0 0.00 0.00 0.00 77 1009.1
20260505095527 56 319 0.0 4.0 0.00 0.00 0.00 77 1009.0
20260505095043 56 291 1.0 4.0 0.00 0.00 0.00 78 1009.0
20260505094510 55 296 1.0 4.0 0.00 0.00 0.00 79 1009.1
20260505094044 55 256 0.0 5.0 0.00 0.00 0.00 79 1008.9
20260505093516 54 263 0.0 5.0 0.00 0.00 0.00 80 1009.0
20260505093048 54 221 0.0 3.0 0.00 0.00 0.00 81 1008.8
20260505092504 54 248 0.0 0.0 0.00 0.00 0.00 81 1008.9
20260505092039 54 7 0.0 5.0 0.00 0.00 0.00 81 1008.9
20260505091511 55 286 0.0 5.0 0.00 0.00 0.00 80 1008.8
20260505091042 54 58 0.0 3.0 0.00 0.00 0.00 80 1008.8
20260505090515 55 58 1.0 3.0 0.00 0.00 0.00 80 1008.8
20260505090109 55 43 0.0 4.0 0.00 0.00 0.00 80 1008.8
20260505085510 55 46 0.0 4.0 0.00 0.00 0.00 80 1008.8
20260505085044 55 40 0.0 2.0 0.00 0.00 0.00 80 1008.8
20260505084514 55 6 0.0 0.0 0.00 0.00 0.00 81 1008.9
20260505084047 55 356 0.0 3.0 0.00 0.00 0.00 81 1008.9
20260505083524 54 266 0.0 3.0 0.00 0.00 0.00 81 1008.9
20260505083105 54 321 0.0 4.0 0.00 0.00 0.00 82 1008.8
20260505082534 54 246 0.0 7.0 0.00 0.00 0.00 82 1008.9
20260505082047 54 277 0.0 7.0 0.00 0.00 0.00 82 1008.9
20260505081521 54 358 0.0 1.0 0.00 0.00 0.00 82 1008.8
20260505081052 54 263 0.0 1.0 0.00 0.00 0.00 82 1008.8
20260505080522 55 351 0.0 3.0 0.00 0.00 0.00 81 1008.7
20260505080044 55 351 0.0 3.0 0.00 0.00 0.00 81 1008.6
20260505075508 55 346 0.0 5.0 0.00 0.00 0.00 81 1008.6
20260505075043 55 266 1.0 5.0 0.00 0.00 0.00 81 1008.7
20260505074517 55 310 0.0 4.0 0.00 0.00 0.00 80 1008.6
20260505074046 55 338 0.0 4.0 0.00 0.00 0.00 80 1008.6
20260505073504 55 316 0.0 3.0 0.00 0.00 0.00 80 1008.5
20260505073048 55 345 0.0 3.0 0.00 0.00 0.00 80 1008.4
20260505072509 55 275 0.0 0.0 0.00 0.00 0.00 80 1008.4
20260505072041 55 307 0.0 0.0 0.00 0.00 0.00 80 1008.3
20260505071516 55 350 0.0 1.0 0.00 0.00 0.00 80 1008.3
20260505071054 55 43 0.0 2.0 0.00 0.00 0.00 80 1008.3
20260505070510 55 197 0.0 2.0 0.00 0.00 0.00 80 1008.3
20260505070043 55 284 0.0 2.0 0.00 0.00 0.00 80 1008.4
20260505065510 56 234 0.0 2.0 0.00 0.00 0.00 79 1008.4
20260505065040 56 285 0.0 5.0 0.00 0.00 0.00 79 1008.4
20260505064513 56 238 0.0 5.0 0.00 0.00 0.00 79 1008.3
20260505064045 56 288 0.0 3.0 0.00 0.00 0.00 79 1008.4
20260505063504 56 279 0.0 4.0 0.00 0.00 0.00 79 1008.5
20260505063044 56 258 1.0 4.0 0.00 0.00 0.00 80 1008.5
20260505062511 56 14 0.0 3.0 0.00 0.00 0.00 79 1008.5
20260505062046 56 296 0.0 1.0 0.00 0.00 0.00 78 1008.4
20260505061525 56 256 0.0 4.0 0.00 0.00 0.00 78 1008.4
20260505061025 57 317 0.0 4.0 0.00 0.00 0.00 78 1008.4
20260505060600 57 291 0.0 0.0 0.00 0.00 0.00 78 1008.5
20260505060502 57 280 0.0 0.0 0.00 0.00 0.00 77 1008.5
20260505060052 57 357 0.0 0.0 0.00 0.00 0.00 77 1008.6
20260505055508 57 353 0.0 0.0 0.00 0.00 0.00 76 1008.5
20260505055032 58 290 0.0 0.0 0.00 0.00 0.00 75 1008.5
20260505054513 58 287 0.0 3.0 0.00 0.00 0.00 75 1008.6
20260505054041 58 260 0.0 5.0 0.00 0.00 0.00 75 1008.6
20260505053513 57 288 1.0 4.0 0.00 0.00 0.00 76 1008.7
20260505053046 57 282 1.0 5.0 0.00 0.00 0.00 76 1008.6
20260505052515 57 325 0.0 0.0 0.00 0.00 0.00 76 1008.7
20260505052029 57 325 0.0 0.0 0.00 0.00 0.00 75 1008.7
20260505051505 58 325 0.0 0.0 0.00 0.00 0.00 75 1008.7
20260505051040 58 325 0.0 0.0 0.00 0.00 0.00 74 1008.7
20260505050512 59 325 0.0 0.0 0.00 0.00 0.00 73 1008.8
20260505041519 61 279 0.0 3.0 0.00 0.00 0.00 69 1008.9
20260505041053 61 300 0.0 6.0 0.00 0.00 0.00 69 1009.0
20260505040531 61 292 3.0 6.0 0.00 0.00 0.00 69 1008.9
20260505040057 61 332 0.0 5.0 0.00 0.00 0.00 69 1008.9